This demonstration page uses our WeatherBlox Daily Observations layout. Learn more.

Left ArrowRight Arrow

44.8408, -93.29828

Hourly Observations for November 28, 2016

Temp ( °F °C ) Dew Point ( °F °C ) Humidity (%) Winds ( mph kmh ) Pressure ( in mb ) Visibility ( mi km ) Precip ( " mm )
12:53 am 00:53 Cloudy with Mist and Fog 45 7.2 42 5.6 90 90 SE 23 37 29.21 989 5 8 0.00 0.03
1:53 am 01:53 Cloudy 46 7.8 43 6.1 89 89 SE 16 26 29.18 988 9 14 0.00 0.00
2:53 am 02:53 Cloudy 47 8.3 44 6.7 90 90 SE 22 35 29.15 987 10 16 0.00 0.00
3:40 am 03:40 Cloudy with Rain 48 9 45 7 87 87 SSE 20 31 29.12 986 4 6 0.00 0.00
3:53 am 03:53 Cloudy with Light Rain 49 9.4 46 7.8 90 90 SSE 18 30 29.12 986 10 16 0.03 0.76
4:51 am 04:51 Cloudy with Light Rain 50 10 46 8 88 88 SSE 18 30 29.09 985 9 14 0.02 0.51
4:53 am 04:53 Cloudy with Light Rain 50 10 46 7.8 86 86 SSE 18 30 29.10 986 9 14 0.02 0.51
5:19 am 05:19 Cloudy with Light Rain 50 10 46 7.8 86 86 SSE 20 31 29.09 985 10 16 0.00 0.03
5:45 am 05:45 Cloudy 50 10 46 7.8 86 86 SSE 20 31 29.09 985 10 16 0.00 0.03
5:53 am 05:53 Cloudy 51 10.6 46 7.8 83 83 SSE 22 35 29.09 985 10 16 0.00 0.03
6:53 am 06:53 Cloudy 51 10.6 45 7.2 80 80 SSE 16 26 29.08 985 10 16 0.00 0.00
7:22 am 07:22 Cloudy 52 11 45 7 77 77 S 13 20 29.06 984 10 16 0.00 0.00
7:53 am 07:53 Cloudy 52 11.1 45 7.2 77 77 S 16 26 29.08 985 10 16 0.00 0.00
8:07 am 08:07 Mostly Cloudy 52 11.1 45 7.2 77 77 SSE 22 35 29.09 985 10 16 0.00 0.00
8:53 am 08:53 Cloudy 52 11.1 46 7.8 80 80 SSE 18 30 29.08 985 10 16 0.00 0.00
9:11 am 09:11 Cloudy with Nearby Thunderstorms 52 11.1 46 7.8 80 80 SSE 21 33 29.06 984 9 14 0.00 0.03
9:53 am 09:53 Cloudy with Nearby Thunderstorms 54 12.2 47 8.3 77 77 S 28 44 29.06 984 10 16 0.01 0.25
10:53 am 10:53 Windy with Storms Likely 53 11.7 47 8.3 80 80 S 24 39 29.04 984 7 11 0.00 0.03
11:07 am 11:07 Mostly Cloudy with Strong Thunderstorms 51 10.6 45 7.2 80 80 SSW 15 24 29.06 984 7 11 0.16 4.06
11:12 am 11:12 Cloudy with Strong Thunderstorms 49 9.4 45 7.2 86 86 SW 14 22 29.06 984 7 11 0.24 6.10
11:18 am 11:18 Cloudy with Strong Thunderstorms 48 9 45 7 87 87 SSW 17 28 29.06 984 5 8 0.00 0.00
11:27 am 11:27 Cloudy with Thunderstorms 49 9.4 45 7.2 86 86 S 16 26 29.06 984 7 11 0.76 19.30
11:35 am 11:35 Cloudy with Nearby Thunderstorms 50 10 45 7.2 83 83 S 15 24 29.06 984 4 6 0.79 20.07
11:53 am 11:53 Cloudy with Light Rain 51 10.6 46 7.8 83 83 S 23 37 29.05 984 5 8 0.84 21.34
12:05 pm 12:05 Cloudy with Light Rain 51 10.6 47 8.3 86 86 SSE 22 35 29.03 983 7 11 0.02 0.51
12:12 pm 12:12 Cloudy with Light Rain 52 11 46 8 82 82 S 15 24 29.03 983 8 13 0.00 0.00
12:22 pm 12:22 Cloudy 52 11 46 8 82 82 S 15 24 29.03 983 8 13 0.00 0.00
12:39 pm 12:39 Cloudy 51 10.6 46 7.8 83 83 S 14 22 29.03 983 9 14 0.02 0.51
12:53 pm 12:53 Cloudy 50 10 46 7.8 86 86 SSE 13 20 29.03 983 8 13 0.02 0.51
1:03 pm 13:03 Cloudy with Light Rain 50 10 46 7.8 86 86 S 18 30 29.03 983 8 13 0.00 0.03
1:53 pm 13:53 Cloudy 50 10 46 7.8 86 86 S 13 20 29.00 982 8 13 0.00 0.03
2:53 pm 14:53 Cloudy 50 10 46 7.8 86 86 SSE 10 17 28.99 982 7 11 0.00 0.03
3:17 pm 15:17 Cloudy 50 10 46 7.8 86 86 SE 9 15 29.00 982 8 13 0.00 0.00
3:28 pm 15:28 Cloudy 52 11 46 8 82 82 SSE 10 17 29.00 982 8 13 0.00 0.00
3:50 pm 15:50 Cloudy 50 10 46 8 88 88 SE 10 17 29.03 983 8 13 0.00 0.00
3:53 pm 15:53 Cloudy 50 10 46 7.8 86 86 SE 9 15 28.99 982 8 13 0.00 0.00
4:29 pm 16:29 Cloudy 49 9.4 45 7.2 86 86 SSE 15 24 29.00 982 8 13 0.00 0.00
4:53 pm 16:53 Cloudy with Light Rain 49 9.4 45 7.2 86 86 S 9 15 28.99 982 10 16 0.00 0.03
5:25 pm 17:25 Mostly Cloudy 48 8.9 45 7.2 89 89 S 8 13 29.03 983 10 16 0.05 1.27
5:53 pm 17:53 Partly Cloudy 47 8.3 40 4.4 77 77 SSW 7 11 29.00 982 10 16 0.05 1.27
6:53 pm 18:53 Cloudy 44 6.7 36 2.2 73 73 WSW 9 15 29.02 983 10 16 0.00 0.00
7:53 pm 19:53 Cloudy 42 5.6 33 0.6 71 71 SW 6 9 29.01 982 10 16 0.00 0.00
8:53 pm 20:53 Mostly Cloudy 41 5 33 0.6 73 73 WSW 7 11 29.01 982 10 16 0.00 0.00
9:53 pm 21:53 Partly Cloudy 39 3.9 31 -0.6 73 73 SW 6 9 29.01 982 10 16 0.00 0.00
10:53 pm 22:53 Mostly Cloudy 39 3.9 31 -0.6 73 73 SW 10 17 29.03 983 10 16 0.00 0.00
11:00 pm 23:00 Cloudy 39 3.9 31 -0.6 73 73 SW 10 17 29.06 984 10 16 0.00 0.00
11:53 pm 23:53 Cloudy 38 3.3 31 -0.6 76 76 SW 8 13 29.04 983 10 16 0.00 0.00

Powered by AerisWeather